This demonstration page uses our WeatherBlox Daily Observations layout. Learn more.

Left ArrowRight Arrow

39.01783, -85.05884

Hourly Observations for March 22, 2017

Temp ( °F °C ) Dew Point ( °F °C ) Humidity (%) Winds ( mph kmh ) Pressure ( in mb ) Visibility ( mi km ) Precip ( " mm )
12:52 am 00:52 Clear 41 5 25 -3.9 53 53 N 15 24 30.22 1023 10 16 0.00 0.00
1:52 am 01:52 Clear 38 3.3 24 -4.4 57 57 N 18 30 30.25 1024 10 16 0.00 0.00
2:52 am 02:52 Clear 37 2.8 25 -3.9 62 62 N 17 28 30.29 1026 10 16 0.00 0.00
3:52 am 03:52 Clear 35 1.7 25 -3.9 67 67 N 12 19 30.31 1026 10 16 0.00 0.00
4:52 am 04:52 Clear 34 1.1 20 -6.7 56 56 NE 18 30 30.32 1027 10 16 0.00 0.00
5:52 am 05:52 Clear 32 0 19 -7.2 59 59 NNE 16 26 30.33 1027 10 16 0.00 0.00
6:52 am 06:52 Clear 30 -1.1 16 -8.9 56 56 NNE 15 24 30.36 1028 10 16 0.00 0.00
7:52 am 07:52 Mostly Sunny 29 -1.7 16 -8.9 58 58 NNE 15 24 30.39 1029 10 16 0.00 0.00
8:52 am 08:52 Mostly Sunny 30 -1.1 16 -8.9 56 56 NE 17 28 30.42 1030 10 16 0.00 0.00
9:52 am 09:52 Mostly Sunny 31 -0.6 16 -8.9 54 54 NE 16 26 30.45 1031 10 16 0.00 0.00
10:52 am 10:52 Sunny 33 0.6 17 -8.3 52 52 ENE 12 19 30.48 1032 10 16 0.00 0.00
11:52 am 11:52 Sunny 35 1.7 17 -8.3 48 48 NNE 14 22 30.50 1033 10 16 0.00 0.00
12:52 pm 12:52 Sunny 37 2.8 16 -8.9 42 42 NE 16 26 30.50 1033 10 16 0.00 0.00
1:52 pm 13:52 Sunny 39 3.9 16 -8.9 39 39 NNE 15 24 30.49 1033 10 16 0.00 0.00
2:52 pm 14:52 Sunny 40 4.4 16 -8.9 38 38 ENE 16 26 30.47 1032 10 16 0.00 0.00
3:52 pm 15:52 Sunny 41 5 18 -7.8 39 39 NE 12 19 30.45 1031 10 16 0.00 0.00
4:52 pm 16:52 Sunny 42 5.6 17 -8.3 36 36 ENE 10 17 30.44 1031 10 16 0.00 0.00
5:52 pm 17:52 Sunny 42 5.6 16 -8.9 35 35 NE 14 22 30.44 1031 10 16 0.00 0.00
6:52 pm 18:52 Mostly Sunny 40 4.4 16 -8.9 38 38 NE 12 19 30.45 1031 10 16 0.00 0.00
7:52 pm 19:52 Mostly Sunny 38 3.3 18 -7.8 44 44 ENE 13 20 30.45 1031 10 16 0.00 0.00
8:52 pm 20:52 Mostly Clear 36 2.2 20 -6.7 52 52 ENE 14 22 30.47 1032 10 16 0.00 0.00
9:52 pm 21:52 Partly Cloudy 36 2.2 20 -6.7 52 52 ENE 13 20 30.47 1032 10 16 0.00 0.00
10:52 pm 22:52 Mostly Clear 35 1.7 19 -7.2 52 52 ENE 12 19 30.48 1032 10 16 0.00 0.00
11:52 pm 23:52 Clear 33 0.6 19 -7.2 56 56 ENE 10 17 30.48 1032 10 16 0.00 0.00

Powered by AerisWeather